period_start,C,m1,H,J0,J1,J2,J3,J4,J5,JA,JB,JC,JD,JJ,JK,JN,#
2013-12-23 00:00:12,0.03,3.54,0.00,23.21,27.47,30.01,6.11,32.13,1027.18,2039.06,2327.93,2420.81,2636.04,349.71,326.84,17.82,0000 0000 0000 0000 000000
2013-12-23 00:01:12,0.14,3.54,0.00,23.24,27.47,30.03,6.12,32.08,1027.16,2039.05,2327.46,2420.36,2635.95,350.31,327.35,17.82,0000 0000 0000 0000 000000
2013-12-23 00:02:12,0.27,3.55,0.00,23.26,27.47,30.01,6.32,32.17,1027.21,2039.07,2327.17,2420.13,2635.76,350.72,327.72,17.83,0000 0000 0000 0000 000000
2013-12-23 00:03:13,0.20,3.55,0.00,23.30,27.47,30.08,6.01,31.75,1027.20,2039.10,2327.02,2420.04,2635.34,349.66,326.70,17.84,0000 0000 0000 0000 000000
2013-12-23 00:04:13,0.18,3.55,0.00,23.33,27.47,30.05,6.08,32.13,1027.18,2039.12,2326.61,2419.99,2635.12,349.84,326.82,17.84,0000 0000 0000 0000 000000
2013-12-23 00:05:13,0.15,3.55,0.00,23.37,27.47,30.07,6.05,32.00,1027.12,2039.08,2326.22,2419.74,2635.03,349.66,326.79,17.85,0000 0000 0000 0000 000000
2013-12-23 00:06:14,0.16,3.55,0.00,23.41,27.47,30.05,6.18,32.00,1027.07,2039.07,2326.06,2419.32,2634.97,350.87,327.66,17.85,0000 0000 0000 0000 000000
2013-12-23 00:07:14,0.21,3.55,0.00,23.33,27.47,30.05,5.97,31.54,1027.02,2039.05,2325.56,2419.12,2634.57,349.71,326.65,17.86,0000 0000 0000 0000 000000
2013-12-23 00:08:14,0.22,3.55,0.00,23.32,27.47,30.02,6.06,31.96,1026.99,2039.05,2325.21,2419.03,2634.24,350.25,327.16,17.87,0000 0000 0000 0000 000000
2013-12-23 00:09:14,0.15,3.55,0.00,23.36,27.47,30.04,6.30,32.21,1026.93,2039.04,2325.07,2418.98,2634.08,350.99,327.48,17.87,0000 0000 0000 0000 000000
2013-12-23 00:10:14,0.08,3.55,0.00,23.34,27.47,30.01,6.14,31.79,1026.91,2039.08,2324.99,2418.90,2634.03,350.35,327.14,17.88,0000 0000 0000 0000 000000
2013-12-23 00:11:15,0.11,3.56,0.00,23.44,27.47,30.04,6.18,31.88,1026.90,2039.16,2324.84,2418.59,2634.01,350.43,326.74,17.88,0000 0000 0000 0000 000000
2013-12-23 00:12:15,0.23,3.56,0.00,23.43,27.47,30.01,6.16,31.79,1026.89,2039.20,2324.40,2418.24,2633.82,351.50,327.96,17.89,0000 0000 0000 0000 000000
2013-12-23 00:13:15,0.28,3.56,0.00,23.37,27.47,29.99,6.03,32.00,1026.89,2039.20,2324.15,2418.09,2633.39,350.86,327.63,17.89,0000 0000 0000 0000 000000
2013-12-23 00:14:16,0.18,3.56,0.00,23.27,27.47,30.00,6.19,32.13,1026.91,2039.32,2324.05,2418.03,2633.14,350.32,327.51,17.90,0000 0000 0000 0000 000000
2013-12-23 00:15:16,0.17,3.56,0.00,23.26,27.47,30.02,6.01,31.83,1026.92,2039.33,2323.95,2417.99,2633.05,349.14,326.46,17.91,0000 0000 0000 0000 000000
2013-12-23 00:16:16,0.07,3.56,0.00,23.28,27.47,30.01,6.13,32.13,1026.92,2039.29,2323.67,2417.89,2633.01,349.86,326.23,17.91,0000 0000 0000 0000 000000
2013-12-23 00:17:16,0.09,3.56,0.00,23.26,27.47,30.00,6.04,31.50,1026.93,2039.22,2323.27,2417.43,2632.77,350.03,327.07,17.92,0000 0000 0000 0000 000000
2013-12-23 00:18:16,0.24,3.56,0.00,23.22,27.47,30.02,6.26,32.00,1026.93,2039.16,2323.09,2417.19,2632.35,350.60,327.29,17.92,0000 0000 0000 0000 000000
2013-12-23 00:19:17,0.14,3.56,0.00,23.19,27.47,30.03,6.07,31.75,1026.93,2039.13,2322.86,2417.06,2632.13,349.29,326.38,17.93,0000 0000 0000 0000 000000
2013-12-23 00:20:17,0.12,3.56,0.00,23.24,27.47,30.07,6.08,32.08,1026.89,2039.17,2322.40,2417.01,2632.05,350.24,327.20,17.94,0000 0000 0000 0000 000000
2013-12-23 00:21:17,0.14,3.57,0.00,23.31,27.47,30.06,6.10,31.67,1026.91,2039.17,2322.16,2416.93,2632.01,350.03,326.94,17.94,0000 0000 0000 0000 000000
2013-12-23 00:22:17,0.11,3.57,0.00,23.32,27.47,30.04,6.02,32.04,1026.91,2039.10,2322.03,2416.51,2631.72,349.48,326.40,17.95,0000 0000 0000 0000 000000
2013-12-23 00:23:18,0.16,3.57,0.00,23.26,27.47,30.03,5.91,31.83,1026.88,2039.09,2321.72,2416.20,2631.30,349.49,326.70,17.95,0000 0000 0000 0000 000000
2013-12-23 00:24:18,0.23,3.57,0.00,23.30,27.47,30.06,6.16,31.96,1026.92,2039.06,2321.31,2416.07,2631.11,350.95,327.97,17.96,0000 0000 0000 0000 000000
2013-12-23 00:25:18,0.16,3.57,0.00,23.28,27.47,30.06,6.11,32.29,1026.92,2039.05,2321.13,2416.02,2631.04,350.09,327.57,17.97,0000 0000 0000 0000 000000
2013-12-23 00:26:19,0.07,3.57,0.00,23.25,27.47,30.08,6.13,32.08,1026.92,2039.04,2321.04,2415.97,2630.96,350.96,327.86,17.97,0000 0000 0000 0000 000000
2013-12-23 00:27:19,0.07,3.57,0.00,23.24,27.47,30.10,6.01,31.92,1026.95,2039.06,2320.74,2415.75,2630.70,349.84,326.85,17.98,0000 0000 0000 0000 000000
2013-12-23 00:28:19,0.22,3.57,0.00,23.22,27.47,30.05,5.97,31.71,1026.96,2039.12,2320.30,2415.36,2630.35,349.52,326.94,17.98,0000 0000 0000 0000 000000
2013-12-23 00:29:19,0.36,3.57,0.00,23.21,27.47,30.05,6.13,32.13,1026.97,2039.26,2320.11,2415.16,2630.17,351.14,327.98,17.99,0000 0000 0000 0000 000000
2013-12-23 00:30:20,0.24,3.57,0.00,23.22,27.47,30.02,6.14,32.13,1026.94,2039.27,2320.04,2415.06,2630.06,350.29,326.70,17.99,0000 0000 0000 0000 000000
2013-12-23 00:31:20,0.10,3.58,0.00,23.22,27.46,30.00,6.06,32.08,1026.93,2039.22,2319.90,2415.01,2630.02,350.21,327.21,18.00,0000 0000 0000 0000 000000
2013-12-23 00:32:20,0.02,3.58,0.00,23.19,27.46,30.01,6.04,31.75,1026.98,2039.26,2319.51,2414.95,2629.92,349.58,326.90,18.01,0000 0000 0000 0000 000000
2013-12-23 00:33:20,0.16,3.58,0.00,23.24,27.46,30.02,5.97,31.71,1026.96,2039.19,2319.20,2414.66,2629.50,350.06,327.07,18.01,0000 0000 0000 0000 000000
2013-12-23 00:34:20,0.19,3.58,0.00,23.26,27.46,30.04,6.03,31.54,1026.96,2039.17,2319.07,2414.27,2629.18,350.29,327.25,18.02,0000 0000 0000 0000 000000
2013-12-23 00:35:21,0.18,3.58,0.00,23.34,27.46,30.07,6.26,32.17,1026.93,2039.12,2318.93,2414.09,2629.06,351.09,327.69,18.02,0000 0000 0000 0000 000000
2013-12-23 00:36:21,0.11,3.58,0.00,23.32,27.46,30.06,6.23,32.04,1026.94,2039.12,2318.50,2414.03,2629.02,350.39,327.00,18.03,0000 0000 0000 0000 000000
2013-12-23 00:37:21,0.11,3.58,0.00,23.36,27.45,30.07,6.06,32.00,1026.93,2039.08,2318.18,2413.99,2628.87,350.37,327.21,18.04,0000 0000 0000 0000 000000
2013-12-23 00:38:22,0.09,3.58,0.00,23.42,27.45,30.03,6.05,31.92,1026.91,2039.07,2318.06,2413.88,2628.48,350.54,327.29,18.04,0000 0000 0000 0000 000000
2013-12-23 00:39:22,0.12,3.58,0.00,23.38,27.45,30.05,5.99,32.04,1026.92,2039.07,2318.01,2413.58,2628.20,350.15,326.97,18.05,0000 0000 0000 0000 000000
2013-12-23 00:40:22,0.15,3.58,0.00,23.39,27.45,30.07,6.33,32.13,1026.92,2039.08,2317.68,2413.21,2627.88,350.47,327.26,18.05,0000 0000 0000 0000 000000
2013-12-23 00:41:22,0.40,3.59,0.00,23.39,27.45,30.05,5.94,31.96,1026.90,2039.06,2316.67,2412.55,2627.33,349.86,326.68,18.06,0000 0000 0000 0000 000000
2013-12-23 00:42:23,0.49,3.59,0.00,23.42,27.45,30.07,6.16,32.21,1026.90,2039.03,2316.00,2412.20,2627.10,350.54,327.28,18.06,0000 0000 0000 0000 000000
2013-12-23 00:43:23,0.29,3.59,0.00,23.41,27.45,30.03,6.02,32.04,1026.90,2039.04,2315.39,2412.07,2626.73,349.62,326.82,18.07,0000 0000 0000 0000 000000
2013-12-23 00:44:23,0.25,3.59,0.00,23.42,27.45,30.03,6.13,31.88,1026.89,2039.06,2314.98,2411.77,2626.14,349.71,326.51,18.08,0000 0000 0000 0000 000000
2013-12-23 00:45:24,0.55,3.60,0.00,23.52,27.45,30.08,5.93,32.13,1026.90,2039.04,2313.86,2410.49,2624.94,349.42,326.13,18.08,0000 0000 0000 0000 000000
2013-12-23 00:46:24,0.78,3.60,0.00,23.51,27.45,30.04,6.23,32.21,1026.90,2039.04,2313.30,2409.63,2624.34,351.66,328.23,18.09,0000 0000 0000 0000 000000
2013-12-23 00:47:24,0.52,3.60,0.00,23.46,27.45,30.04,6.07,31.71,1026.90,2039.05,2312.73,2409.24,2624.11,349.99,326.92,18.09,0000 0000 0000 0000 000000
2013-12-23 00:48:25,0.31,3.60,0.00,23.55,27.45,30.04,6.07,32.08,1026.92,2039.09,2312.30,2409.08,2623.98,349.49,326.17,18.10,0000 0000 0000 0000 000000
2013-12-23 00:49:25,0.22,3.61,0.00,23.49,27.45,30.03,6.06,31.79,1026.90,2039.12,2312.11,2409.03,2623.66,350.94,327.65,18.11,0000 0000 0000 0000 000000
2013-12-23 00:50:25,0.16,3.61,0.00,23.44,27.45,30.03,6.07,31.75,1026.89,2039.19,2311.96,2408.97,2623.28,349.80,326.60,18.11,0000 0000 0000 0000 000000
2013-12-23 00:51:26,0.19,3.61,0.00,23.53,27.45,30.04,6.07,32.08,1026.89,2039.21,2311.52,2408.65,2623.10,349.97,326.29,18.12,0000 0000 0000 0000 000000
2013-12-23 00:52:26,0.25,3.61,0.00,23.62,27.45,30.04,6.05,31.21,1026.87,2039.17,2311.19,2408.26,2623.03,350.45,326.69,18.12,0000 0000 0000 0000 000000
2013-12-23 00:53:26,0.20,3.61,0.00,23.61,27.45,30.05,6.06,31.75,1026.89,2039.17,2311.07,2408.10,2623.01,349.68,326.78,18.13,0000 0000 0000 0000 000000
2013-12-23 00:54:26,0.07,3.61,0.00,23.51,27.45,30.04,6.02,31.50,1026.91,2039.16,2311.02,2408.03,2623.00,350.73,326.83,18.14,0000 0000 0000 0000 000000
2013-12-23 00:55:27,0.01,3.61,0.00,23.46,27.45,30.04,6.18,31.79,1026.90,2039.15,2310.75,2407.99,2622.85,350.38,327.08,18.14,0000 0000 0000 0000 000000
2013-12-23 00:56:27,0.18,3.61,0.00,23.37,27.45,30.03,5.87,31.67,1026.89,2039.23,2310.29,2407.91,2622.46,348.31,325.25,18.15,0000 0000 0000 0000 000000
2013-12-23 00:57:27,0.26,3.61,0.00,23.36,27.45,30.03,6.17,31.96,1026.88,2039.24,2310.10,2407.63,2622.17,350.59,327.50,18.15,0000 0000 0000 0000 000000
2013-12-23 00:58:28,0.16,3.61,0.00,23.35,27.45,30.02,6.08,31.71,1026.91,2039.19,2310.01,2407.30,2622.06,350.31,327.15,18.16,0000 0000 0000 0000 000000
2013-12-23 00:59:28,0.13,3.62,0.00,23.35,27.45,30.05,6.02,31.96,1026.89,2039.17,2309.59,2407.12,2622.01,350.24,327.08,18.16,0000 0000 0000 0000 000000
2013-12-23 01:00:28,0.14,3.62,0.00,23.33,27.45,30.02,6.13,31.88,1026.87,2039.18,2309.21,2407.03,2621.80,350.86,327.26,18.17,0000 0000 0000 0000 000000
2013-12-23 01:01:29,0.17,3.62,0.00,23.29,27.45,30.03,6.03,31.88,1026.87,2039.21,2309.06,2406.93,2621.34,350.00,326.91,18.18,0000 0000 0000 0000 000000
2013-12-23 01:02:29,0.22,3.62,0.00,23.32,27.45,30.02,6.11,31.67,1026.87,2039.26,2308.76,2406.61,2621.12,349.51,326.43,18.18,0000 0000 0000 0000 000000
2013-12-23 01:03:29,0.26,3.62,0.00,23.38,27.45,30.01,6.13,31.92,1026.88,2039.21,2308.32,2406.26,2621.04,349.88,326.13,18.19,0000 0000 0000 0000 000000
2013-12-23 01:04:29,0.20,3.62,0.00,23.38,27.45,30.03,6.02,31.88,1026.88,2039.22,2308.11,2406.09,2620.99,349.88,326.94,18.19,0000 0000 0000 0000 000000
2013-12-23 01:05:30,0.11,3.62,0.00,23.42,27.45,30.05,6.08,32.08,1026.87,2039.19,2308.02,2406.03,2620.61,349.52,326.62,18.20,0000 0000 0000 0000 000000
2013-12-23 01:06:30,0.09,3.62,0.00,23.37,27.45,30.03,6.10,31.54,1026.87,2039.13,2307.75,2406.00,2620.24,351.44,328.17,18.21,0000 0000 0000 0000 000000
2013-12-23 01:07:30,0.11,3.62,0.00,23.45,27.45,30.05,5.88,31.88,1026.88,2039.08,2307.32,2405.76,2620.08,350.03,326.72,18.21,0000 0000 0000 0000 000000
2013-12-23 01:08:31,0.16,3.62,0.00,23.53,27.45,30.11,6.02,31.83,1026.88,2039.03,2307.11,2405.33,2620.00,349.56,326.25,18.22,0000 0000 0000 0000 000000
2013-12-23 01:09:31,0.18,3.62,0.00,23.49,27.45,30.06,5.93,31.67,1026.88,2039.08,2306.76,2405.12,2619.72,349.45,326.18,18.22,0000 0000 0000 0000 000000
2013-12-23 01:10:31,0.25,3.63,0.00,23.46,27.45,30.04,6.06,31.63,1026.87,2039.09,2306.30,2405.03,2619.30,350.34,326.71,18.23,0000 0000 0000 0000 000000
2013-12-23 01:11:31,0.22,3.63,0.00,23.48,27.45,30.05,6.12,32.04,1026.88,2039.13,2306.11,2404.92,2619.11,350.76,327.30,18.23,0000 0000 0000 0000 000000
2013-12-23 01:12:32,0.16,3.63,0.00,23.58,27.45,30.06,5.98,32.00,1026.88,2039.12,2305.76,2404.47,2619.03,349.54,326.16,18.24,0000 0000 0000 0000 000000
2013-12-23 01:13:32,0.24,3.63,0.00,23.53,27.45,30.04,6.10,31.96,1026.88,2039.12,2305.30,2404.17,2618.87,350.69,327.30,18.25,0000 0000 0000 0000 000000
2013-12-23 01:14:32,0.23,3.63,0.00,23.43,27.45,30.06,5.94,31.83,1026.87,2039.12,2305.11,2404.06,2618.45,349.14,325.96,18.25,0000 0000 0000 0000 000000
2013-12-23 01:15:33,0.14,3.63,0.00,23.39,27.45,30.07,6.10,31.88,1026.89,2039.14,2305.00,2404.01,2618.16,349.97,326.79,18.26,0000 0000 0000 0000 000000
2013-12-23 01:16:33,0.14,3.63,0.00,23.40,27.45,30.08,6.17,32.17,1026.88,2039.19,2304.65,2403.95,2618.05,350.66,327.41,18.26,0000 0000 0000 0000 000000
2013-12-23 01:17:33,0.16,3.63,0.00,23.40,27.45,30.05,6.20,31.92,1026.87,2039.15,2304.25,2403.57,2618.02,350.99,327.61,18.27,0000 0000 0000 0000 000000
2013-12-23 01:18:33,0.18,3.64,0.00,23.51,27.45,30.03,6.04,31.88,1026.88,2039.11,2304.09,2403.23,2617.89,349.54,326.45,18.28,0000 0000 0000 0000 000000
2013-12-23 01:19:34,0.18,3.64,0.00,23.47,27.45,30.02,6.00,32.13,1026.88,2039.20,2303.98,2403.08,2617.44,349.64,326.65,18.28,0000 0000 0000 0000 000000
2013-12-23 01:20:34,0.27,3.64,0.00,23.45,27.45,30.02,5.97,31.88,1026.91,2039.29,2303.56,2403.03,2617.19,350.07,326.82,18.29,0000 0000 0000 0000 000000
2013-12-23 01:21:34,0.18,3.64,0.00,23.45,27.45,30.04,6.10,31.79,1026.90,2039.20,2303.21,2403.00,2617.08,350.53,327.25,18.29,0000 0000 0000 0000 000000
2013-12-23 01:22:34,0.04,3.64,0.00,23.44,27.45,30.04,5.85,32.04,1026.89,2039.13,2303.07,2402.81,2617.03,348.80,325.72,18.30,0000 0000 0000 0000 000000
2013-12-23 01:23:35,0.06,3.64,0.00,23.45,27.45,30.02,6.08,31.79,1026.88,2039.06,2303.02,2402.45,2616.95,350.22,326.75,18.31,0000 0000 0000 0000 000000
2013-12-23 01:24:35,0.10,3.64,0.00,23.44,27.45,30.02,6.01,31.92,1026.87,2039.04,2302.85,2402.18,2616.54,349.86,326.51,18.31,0000 0000 0000 0000 000000
2013-12-23 01:25:35,0.22,3.64,0.00,23.49,27.45,30.04,6.09,31.92,1026.88,2039.07,2302.38,2402.06,2616.21,349.84,326.54,18.32,0000 0000 0000 0000 000000
2013-12-23 01:26:36,0.19,3.64,0.00,23.42,27.45,30.08,6.06,31.58,1026.87,2039.07,2302.14,2402.02,2616.08,349.43,326.49,18.32,0000 0000 0000 0000 000000
2013-12-23 01:27:36,0.10,3.64,0.00,23.47,27.45,30.04,6.11,31.71,1026.88,2039.07,2302.02,2401.98,2616.03,349.83,327.11,18.33,0000 0000 0000 0000 000000
2013-12-23 01:28:36,0.03,3.64,0.00,23.50,27.45,30.06,5.94,31.75,1026.87,2039.05,2301.81,2401.77,2616.00,349.42,325.87,18.33,0000 0000 0000 0000 000000
2013-12-23 01:29:36,0.18,3.65,0.00,23.53,27.45,30.08,6.17,32.08,1026.88,2039.10,2301.43,2401.41,2615.88,350.49,326.72,18.34,0000 0000 0000 0000 000000
2013-12-23 01:30:37,0.24,3.65,0.00,23.57,27.45,30.06,6.02,31.83,1026.87,2039.10,2301.16,2401.18,2615.50,350.06,326.66,18.35,0000 0000 0000 0000 000000
2013-12-23 01:31:37,0.22,3.65,0.00,23.56,27.45,30.04,6.08,31.63,1026.87,2039.16,2301.05,2401.07,2615.20,349.76,326.39,18.35,0000 0000 0000 0000 000000
2013-12-23 01:32:37,0.16,3.65,0.00,23.56,27.45,30.05,6.13,31.67,1026.87,2039.14,2300.98,2401.02,2615.07,351.20,327.74,18.36,0000 0000 0000 0000 000000
2013-12-23 01:33:37,0.04,3.65,0.00,23.55,27.45,30.06,5.94,31.50,1026.87,2039.15,2300.70,2401.00,2615.02,349.03,325.86,18.36,0000 0000 0000 0000 000000
2013-12-23 01:34:37,0.07,3.65,0.00,23.61,27.45,30.06,5.94,31.54,1026.87,2039.07,2300.30,2400.94,2614.99,348.59,325.25,18.37,0000 0000 0000 0000 000000
2013-12-23 01:35:38,0.07,3.65,0.00,23.55,27.45,30.06,5.99,31.21,1026.87,2039.08,2300.12,2400.66,2614.77,349.99,326.61,18.38,0000 0000 0000 0000 000000
2013-12-23 01:36:38,0.20,3.65,0.00,23.46,27.45,30.07,6.11,31.71,1026.87,2039.10,2300.03,2400.31,2614.47,350.30,327.02,18.38,0000 0000 0000 0000 000000
2013-12-23 01:37:38,0.24,3.65,0.00,23.54,27.45,30.08,6.13,31.71,1026.87,2039.14,2299.92,2400.12,2614.21,351.10,327.67,18.39,0000 0000 0000 0000 000000
2013-12-23 01:38:39,0.15,3.65,0.00,23.59,27.45,30.09,6.12,32.21,1026.87,2039.11,2299.54,2400.04,2614.08,349.91,326.50,18.39,0000 0000 0000 0000 000000
2013-12-23 01:39:39,0.12,3.65,0.00,23.60,27.45,30.11,6.13,32.04,1026.87,2039.12,2299.20,2400.01,2614.03,350.36,326.91,18.40,0000 0000 0000 0000 000000
2013-12-23 01:40:39,0.11,3.65,0.00,23.65,27.45,30.10,6.11,31.79,1026.87,2039.10,2299.07,2399.98,2613.98,350.05,326.56,18.40,0000 0000 0000 0000 000000
2013-12-23 01:41:40,0.03,3.65,0.00,23.61,27.45,30.09,6.03,31.75,1026.87,2039.07,2298.96,2399.78,2613.62,349.69,326.26,18.41,0000 0000 0000 0000 000000
2013-12-23 01:42:40,0.13,3.66,0.00,23.62,27.45,30.06,5.99,32.00,1026.88,2039.08,2298.51,2399.45,2613.33,349.50,326.08,18.42,0000 0000 0000 0000 000000
2013-12-23 01:43:40,0.30,3.66,0.00,23.61,27.45,30.03,5.96,31.79,1026.87,2039.10,2298.19,2399.20,2613.15,349.97,326.54,18.42,0000 0000 0000 0000 000000
2013-12-23 01:44:40,0.19,3.66,0.00,23.65,27.45,30.02,5.97,32.25,1026.87,2039.09,2298.06,2399.07,2613.05,348.97,325.54,18.43,0000 0000 0000 0000 000000
2013-12-23 01:45:41,0.08,3.66,0.00,23.53,27.45,30.06,6.09,32.08,1026.87,2039.06,2297.88,2399.01,2613.02,349.97,326.06,18.43,0000 0000 0000 0000 000000
2013-12-23 01:46:41,0.05,3.66,0.00,23.55,27.45,30.04,6.00,31.92,1026.88,2039.06,2297.55,2398.97,2612.97,348.73,325.83,18.44,0000 0000 0000 0000 000000
2013-12-23 01:47:41,0.11,3.66,0.00,23.63,27.45,30.04,5.97,31.75,1026.88,2039.05,2297.25,2398.68,2612.64,350.28,326.86,18.45,0000 0000 0000 0000 000000
2013-12-23 01:48:41,0.23,3.66,0.00,23.59,27.45,30.04,6.08,31.79,1026.89,2039.06,2297.10,2398.42,2612.31,350.31,326.28,18.45,0000 0000 0000 0000 000000
2013-12-23 01:49:42,0.21,3.66,0.00,23.50,27.45,30.03,5.99,31.83,1026.90,2039.07,2297.04,2398.23,2612.12,349.91,326.55,18.46,0000 0000 0000 0000 000000
2013-12-23 01:50:42,0.11,3.66,0.00,23.56,27.45,30.03,6.16,32.00,1026.88,2039.03,2297.00,2398.09,2612.04,351.49,328.01,18.46,0000 0000 0000 0000 000000
2013-12-23 01:51:42,0.04,3.66,0.00,23.74,27.45,30.05,6.00,31.50,1026.89,2039.03,2296.61,2398.02,2612.01,349.92,326.36,18.47,0000 0000 0000 0000 000000
2013-12-23 01:52:42,0.15,3.66,0.00,23.77,27.45,30.06,6.13,32.04,1026.88,2039.06,2296.23,2397.99,2611.96,351.23,327.54,18.48,0000 0000 0000 0000 000000
2013-12-23 01:53:43,0.11,3.66,0.00,23.73,27.45,30.05,6.08,31.75,1026.91,2039.08,2296.08,2397.90,2611.76,350.11,326.53,18.48,0000 0000 0000 0000 000000
2013-12-23 01:54:43,0.13,3.67,0.00,23.61,27.45,30.10,6.05,32.25,1026.90,2039.05,2295.99,2397.53,2611.38,349.06,325.68,18.49,0000 0000 0000 0000 000000
2013-12-23 01:55:43,0.20,3.67,0.00,23.56,27.45,30.10,6.09,32.25,1026.89,2039.05,2295.76,2397.22,2611.14,350.26,326.69,18.49,0000 0000 0000 0000 000000
2013-12-23 01:56:43,0.21,3.67,0.00,23.63,27.45,30.05,5.95,32.00,1026.93,2039.06,2295.46,2397.08,2611.05,348.71,325.45,18.50,0000 0000 0000 0000 000000
2013-12-23 01:57:43,0.12,3.67,0.00,23.67,27.45,30.06,6.11,31.96,1026.92,2039.05,2295.26,2397.03,2611.01,350.68,327.32,18.50,0000 0000 0000 0000 000000
2013-12-23 01:58:44,0.06,3.67,0.00,23.71,27.45,30.05,6.07,31.46,1026.91,2039.04,2295.09,2397.01,2610.99,350.47,326.90,18.51,0000 0000 0000 0000 000000
2013-12-23 01:59:44,0.03,3.67,0.00,23.68,27.44,30.03,6.05,32.04,1026.92,2039.04,2295.03,2396.99,2610.89,349.77,326.71,18.52,0000 0000 0000 0000 000000
2013-12-23 02:00:44,0.05,3.67,0.00,23.70,27.45,30.02,6.09,31.83,1026.90,2039.03,2294.94,2396.92,2610.51,350.55,327.06,18.52,0000 0000 0000 0000 000000
2013-12-23 02:01:45,0.13,3.67,0.00,23.67,27.45,30.06,6.12,31.67,1026.92,2039.03,2294.53,2396.62,2610.22,351.17,327.07,18.53,0000 0000 0000 0000 000000
2013-12-23 02:02:45,0.28,3.67,0.00,23.68,27.45,30.05,6.20,31.96,1026.90,2039.06,2294.20,2396.26,2610.08,350.35,326.82,18.53,0000 0000 0000 0000 000000
2013-12-23 02:03:45,0.23,3.67,0.00,23.72,27.45,30.05,6.08,31.71,1026.92,2039.09,2294.07,2396.10,2610.03,349.89,326.35,18.54,0000 0000 0000 0000 000000
2013-12-23 02:04:45,0.09,3.67,0.00,23.62,27.45,30.05,6.15,32.13,1026.90,2039.09,2293.97,2396.03,2610.00,350.32,326.85,18.55,0000 0000 0000 0000 000000
2013-12-23 02:05:46,0.08,3.67,0.00,23.63,27.45,30.05,6.21,32.42,1026.89,2039.08,2293.53,2396.00,2609.94,350.40,327.13,18.55,0000 0000 0000 0000 000000
2013-12-23 02:06:46,0.10,3.68,0.00,23.77,27.45,30.04,6.07,31.79,1026.89,2039.08,2293.20,2395.97,2609.64,350.20,326.70,18.56,0000 0000 0000 0000 000000
2013-12-23 02:07:46,0.15,3.68,0.00,23.79,27.44,30.03,6.16,31.83,1026.89,2039.05,2293.07,2395.73,2609.28,350.05,326.30,18.56,0000 0000 0000 0000 000000
2013-12-23 02:08:46,0.16,3.68,0.00,23.83,27.44,30.04,6.03,31.71,1026.92,2039.07,2293.01,2395.47,2609.10,350.34,326.09,18.57,0000 0000 0000 0000 000000
2013-12-23 02:09:46,0.17,3.68,0.00,23.88,27.45,30.04,6.08,32.17,1026.90,2039.05,2292.94,2395.19,2609.03,350.11,326.38,18.58,0000 0000 0000 0000 000000
2013-12-23 02:10:47,0.08,3.68,0.00,23.92,27.45,30.05,5.90,31.96,1026.89,2039.03,2292.56,2395.07,2608.99,348.89,325.19,18.58,0000 0000 0000 0000 000000
2013-12-23 02:11:47,0.16,3.68,0.00,23.88,27.44,30.05,6.04,31.92,1026.88,2039.05,2292.23,2395.02,2608.96,349.67,325.96,18.59,0000 0000 0000 0000 000000
2013-12-23 02:12:47,0.09,3.68,0.00,23.91,27.44,30.06,6.03,31.71,1026.89,2039.06,2292.08,2394.99,2608.85,349.88,326.12,18.59,0000 0000 0000 0000 000000
2013-12-23 02:13:48,0.07,3.68,0.00,23.83,27.44,30.05,6.06,31.75,1026.87,2039.07,2292.01,2394.98,2608.47,350.55,326.83,18.60,0000 0000 0000 0000 000000
2013-12-23 02:14:48,0.10,3.68,0.00,23.84,27.44,30.02,6.01,31.96,1026.88,2039.07,2291.91,2394.93,2608.22,348.93,325.31,18.60,0000 0000 0000 0000 000000
2013-12-23 02:15:48,0.09,3.68,0.00,23.76,27.44,30.03,6.11,31.83,1026.88,2039.05,2291.54,2394.57,2608.09,350.51,326.87,18.61,0000 0000 0000 0000 000000
2013-12-23 02:16:48,0.26,3.68,0.00,23.71,27.44,30.03,6.09,31.58,1026.87,2039.03,2291.22,2394.26,2608.03,350.95,327.52,18.62,0000 0000 0000 0000 000000
2013-12-23 02:17:48,0.16,3.68,0.00,23.66,27.44,30.03,6.11,31.71,1026.87,2039.06,2291.09,2394.11,2608.01,350.16,326.66,18.62,0000 0000 0000 0000 000000
2013-12-23 02:18:49,0.11,3.68,0.00,23.64,27.44,30.02,6.13,31.71,1026.87,2039.06,2291.03,2394.04,2607.99,351.13,327.59,18.63,0000 0000 0000 0000 000000
2013-12-23 02:19:49,0.05,3.69,0.00,23.64,27.44,30.04,5.93,32.04,1026.86,2039.08,2291.01,2394.01,2607.85,348.67,325.51,18.63,0000 0000 0000 0000 000000
2013-12-23 02:20:49,0.07,3.69,0.00,23.64,27.44,30.06,6.09,31.75,1026.87,2039.12,2290.82,2393.97,2607.43,350.78,327.26,18.64,0000 0000 0000 0000 000000
2013-12-23 02:21:50,0.17,3.69,0.00,23.77,27.44,30.06,6.09,31.79,1026.87,2039.10,2290.40,2393.88,2607.16,349.48,325.91,18.65,0000 0000 0000 0000 000000
2013-12-23 02:22:50,0.17,3.69,0.00,23.68,27.44,30.06,6.12,31.92,1026.87,2039.06,2290.14,2393.54,2607.05,349.88,326.37,18.65,0000 0000 0000 0000 000000
2013-12-23 02:23:50,0.18,3.69,0.00,23.61,27.44,30.10,6.08,31.96,1026.87,2039.06,2290.05,2393.26,2607.02,349.47,326.08,18.66,0000 0000 0000 0000 000000
2013-12-23 02:24:50,0.10,3.69,0.00,23.66,27.44,30.04,5.98,31.79,1026.87,2039.04,2289.99,2393.11,2606.97,350.30,326.86,18.66,0000 0000 0000 0000 000000
2013-12-23 02:25:51,0.04,3.69,0.00,23.76,27.44,30.07,5.92,31.63,1026.87,2039.04,2289.80,2393.04,2606.91,349.79,326.51,18.67,0000 0000 0000 0000 000000
2013-12-23 02:26:51,0.08,3.69,0.00,23.80,27.44,30.06,6.05,31.71,1026.87,2039.06,2289.47,2393.01,2606.69,350.51,326.85,18.67,0000 0000 0000 0000 000000
2013-12-23 02:27:51,0.17,3.69,0.00,23.81,27.44,30.03,6.11,31.75,1026.88,2039.09,2289.17,2393.00,2606.30,349.79,326.37,18.68,0000 0000 0000 0000 000000
2013-12-23 02:28:51,0.15,3.69,0.00,23.76,27.44,30.04,6.04,31.58,1026.88,2039.06,2289.06,2392.95,2606.12,349.20,325.76,18.69,0000 0000 0000 0000 000000
2013-12-23 02:29:52,0.08,3.69,0.00,23.72,27.44,30.04,6.07,31.54,1026.87,2039.07,2289.02,2392.74,2606.04,349.95,326.39,18.69,0000 0000 0000 0000 000000
2013-12-23 02:30:52,0.09,3.69,0.00,23.73,27.44,30.04,6.03,31.88,1026.88,2039.07,2288.93,2392.41,2606.01,350.23,326.65,18.70,0000 0000 0000 0000 000000
2013-12-23 02:31:52,0.14,3.69,0.00,23.74,27.44,30.05,6.14,31.96,1026.87,2039.06,2288.49,2392.17,2605.97,351.43,327.76,18.70,0000 0000 0000 0000 000000
2013-12-23 02:32:52,0.22,3.70,0.00,23.76,27.44,30.07,5.98,31.38,1026.87,2039.06,2288.20,2392.06,2605.73,349.72,326.13,18.71,0000 0000 0000 0000 000000
2013-12-23 02:33:52,0.16,3.70,0.00,23.76,27.44,30.06,6.03,31.96,1026.87,2039.05,2288.07,2392.02,2605.37,349.68,326.10,18.72,0000 0000 0000 0000 000000
2013-12-23 02:34:53,0.08,3.70,0.00,23.72,27.44,30.06,6.23,32.46,1026.87,2039.03,2288.02,2392.00,2605.14,351.02,327.38,18.72,0000 0000 0000 0000 000000
2013-12-23 02:35:53,0.03,3.70,0.00,23.69,27.44,30.05,6.09,31.83,1026.87,2039.01,2287.89,2391.93,2605.05,351.07,327.47,18.73,0000 0000 0000 0000 000000